Location: Bonn
(50.7330°N, 7.1000°E)
Time: 08:04:36
(UTC+02:00)

Cosmos 1933 Rocket - Visible Passes

Search period start: 05 July 2015 00:00
Search period end: 15 July 2015 00:00
Orbit: 608 x 631 km, 82.5° (Epoch: 04 July)

Date Brightness Start Highest point End Pass type
(mag) Time Alt. Az. Time Alt. Az. Time Alt. Az.
05 Jul 5.7 22:29:03 10° SW 22:32:56 30° WNW 22:36:50 10° N visible
06 Jul 6.4 22:47:29 10° WSW 22:50:40 19° WNW 22:53:45 10° NNW visible
07 Jul 6.8 23:06:46 10° W 23:08:30 12° WNW 23:10:03 10° NW visible
11 Jul 7.1 22:38:56 10° WNW 22:40:26 11° WNW 22:41:45 10° NW visible
